[[{"header":{"parameterUnit":"m.s-1","parameterCategory":1,"la1":30.2991,"la2":30.254,"lo1":-89.0895,"lo2":-89.0444,"dy":0.0017,"dx":0.0017,"nx":28,"ny":28,"refTime":"2024-07-27T09:00:00:Z","depth":0,"parameterNumber":2,"parameterNumberName":"U-component_of_WINDS"},"data":[0,0,0,0,0,0,0,0,0,0,0,0,0,0,0,0,0,0,0,0,0,0,0,0,0,0,0,0,0,0,0,0,0,0,0,0,0,0,0,0,0,0,0,0,0,0,0,0,0,0,0,0,0,0,0,0,0,0,-1.1295,-1.1296,0,-1.1361,-1.1362,-1.1363,-1.1399,-1.1399,-1.1399,-1.1399,-1.1466,-1.1467,-1.1469,0,0,0,0,0,0,0,0,0,0,0,0,0,-1.1198,-1.12,-1.1295,-1.1296,-1.1297,-1.1361,-1.1362,-1.1363,-1.1399,-1.1399,-1.1399,-1.1399,-1.1465,-1.1467,-1.1469,0,0,0,0,0,0,0,0,0,0,0,0,0,-1.125,-1.12,-1.1295,-1.1322,-1.1325,-1.1361,-1.1362,-1.1363,-1.1399,-1.1399,-1.1399,-1.1399,-1.1464,-1.1467,-1.1469,-1.1482,0,0,-1.1477,-1.1478,0,0,0,0,0,0,0,0,-1.1247,-1.1253,-1.1317,-1.132,-1.1324,-1.1372,-1.1352,-1.1403,-1.1399,-1.1371,-1.1399,-1.1399,-1.1434,-1.1439,-1.1451,-1.1485,-1.1488,-1.1477,-1.1479,-1.148,-1.1481,0,0,0,0,0,0,0,-1.1243,-1.1251,-1.1321,-1.1318,-1.1322,-1.1331,-1.1338,-1.1362,-1.1401,-1.1373,-1.1376,-1.1383,-1.1436,-1.1449,-1.1453,-1.1489,-1.1477,-1.1479,-1.1481,-1.1482,-1.1537,-1.1537,0,0,0,0,0,0,-1.1235,-1.1247,-1.1319,-1.1323,-1.1285,-1.1332,-1.1341,-1.1356,-1.1401,-1.1408,-1.1383,-1.1385,-1.1444,-1.145,-1.1456,-1.1474,-1.148,-1.1482,-1.1484,-1.1537,-1.1537,-1.1537,0,0,0,0,0,0,-1.1233,-1.1241,-1.1316,-1.1286,-1.1296,-1.1334,-1.1351,-1.1358,-1.137,-1.1408,-1.1415,-1.1389,-1.1445,-1.1452,-1.1476,-1.1477,-1.1483,-1.1486,-1.1537,-1.1537,-1.1537,-1.151,0,0,0,0,0,0,-1.123,-1.124,-1.1246,-1.1286,-1.1298,-1.1335,-1.1351,-1.1359,-1.1375,-1.1378,-1.1416,-1.1422,-1.1445,-1.1472,-1.1478,-1.148,-1.1488,-1.1538,-1.1537,-1.1537,-1.1511,-1.1509,-1.1508,0,0,0,0,0,-1.1226,-1.1235,-1.1246,-1.1254,-1.1306,-1.1335,-1.1342,-1.1369,-1.1375,-1.1381,-1.1405,-1.1421,-1.1475,-1.1474,-1.1481,-1.1484,-1.1538,-1.1537,-1.1537,-1.1512,-1.151,-1.1508,0,0,0,0,0,0,-1.1194,-1.1241,-1.1253,-1.1276,-1.1301,-1.1341,-1.135,-1.1366,-1.139,-1.1391,-1.1423,-1.1431,-1.1452,-1.147,-1.1468,-1.1499,-1.1508,-1.151,-1.1486,-1.1484,-1.1483,-1.1478,-1.149,0,0,0,0,0,-1.119,-1.121,-1.125,-1.1266,-1.1278,-1.1311,-1.1325,-1.1344,-1.1372,-1.1383,-1.1409,-1.1435,-1.1458,-1.1472,-1.1495,-1.1514,-1.1523,-1.152,-1.1518,-1.1516,-1.1517,-1.1528,-1.1527,-1.1537,-1.1537,-1.1537,0,0,-1.118,-1.1209,-1.122,-1.126,-1.1282,-1.1302,-1.132,-1.1341,-1.1357,-1.1386,-1.141,-1.1429,-1.146,-1.1482,-1.1492,-1.1498,-1.1516,-1.1516,-1.1515,-1.1516,-1.1528,-1.1527,-1.1526,-1.1537,-1.1537,-1.1537,0,0,-1.1174,-1.1198,-1.1213,-1.1235,-1.1269,-1.1291,-1.1294,-1.1332,-1.1347,-1.1371,-1.1394,-1.1412,-1.1451,-1.1472,-1.1488,-1.1489,-1.1505,-1.1496,-1.1486,-1.1497,-1.1496,-1.1496,-1.1496,-1.1496,-1.1497,-1.1497,-1.1497,0,-1.1158,-1.119,-1.1219,-1.1239,-1.1256,-1.1284,-1.1299,-1.1319,-1.1358,-1.1369,-1.1375,-1.1424,-1.1447,-1.1473,-1.1474,-1.1486,-1.149,-1.1492,-1.1494,-1.1494,-1.1494,-1.1494,-1.1495,-1.1495,-1.1495,-1.1496,-1.1496,0,-1.1169,-1.1191,-1.12,-1.1237,-1.1255,-1.1273,-1.1304,-1.1318,-1.1335,-1.1356,-1.1381,-1.1409,-1.1439,-1.1446,-1.1463,-1.1475,-1.1477,-1.1488,-1.1498,-1.1491,-1.1492,-1.1493,-1.1493,-1.1494,-1.1494,-1.1495,0,0,-1.1145,-1.1198,-1.12,-1.1218,-1.1256,-1.1274,-1.1292,-1.1322,-1.1333,-1.1359,-1.1375,-1.1408,-1.1418,-1.1436,-1.1455,-1.1464,-1.1463,-1.1474,-1.1475,-1.1471,-1.1478,-1.147,-1.1469,-1.1474,-1.1474,-1.1474,-1.1475,0,-1.1144,-1.1179,-1.1205,-1.1231,-1.1251,-1.1277,-1.1294,-1.1319,-1.1339,-1.1359,-1.1382,-1.1404,-1.1416,-1.1427,-1.1437,-1.1461,-1.1465,-1.1461,-1.1489,-1.1489,-1.148,-1.147,-1.1461,-1.1461,-1.1476,-1.1476,-1.1476,0,-1.1147,-1.1173,-1.12,-1.1237,-1.1246,-1.126,-1.1289,-1.1308,-1.1337,-1.1351,-1.1371,-1.1391,-1.1411,-1.1419,-1.1447,-1.1444,-1.1457,-1.147,-1.1471,-1.1474,-1.1482,-1.1473,-1.1462,-1.1462,-1.1477,-1.1477,-1.1477,0,-1.1126,-1.1167,-1.1189,-1.1203,-1.1246,-1.1255,-1.1274,-1.1303,-1.1319,-1.1344,-1.1354,-1.1381,-1.1396,-1.1416,-1.1442,-1.1445,-1.1468,-1.1478,-1.1479,-1.1479,-1.1483,-1.1482,-1.1473,-1.1491,-1.1491,-1.1491,-1.1491,0,-1.1123,-1.1138,-1.118,-1.1193,-1.1211,-1.1241,-1.1258,-1.1279,-1.1305,-1.1322,-1.1346,-1.1362,-1.1396,-1.1415,-1.1436,-1.1456,-1.1462,-1.1474,-1.1479,-1.1472,-1.147,-1.1481,-1.1481,-1.1491,-1.1491,-1.1491,-1.1491,0,-1.1102,-1.1131,-1.1156,-1.1195,-1.1205,-1.1217,-1.125,-1.1264,-1.1285,-1.1307,-1.1314,-1.1348,-1.1372,-1.14,-1.1434,-1.1447,-1.1466,-1.1474,-1.1456,-1.1459,-1.1459,-1.1459,-1.1457,-1.1458,-1.1475,-1.1475,-1.1474,0,-1.1098,-1.1111,-1.1151,-1.1165,-1.1182,-1.1204,-1.122,-1.125,-1.1266,-1.13,-1.1309,-1.1336,-1.1358,-1.1396,-1.1423,-1.1449,-1.1457,-1.1455,-1.1461,-1.1453,-1.1457,-1.1456,-1.1457,-1.1453,-1.1452,-1.1452,-1.1452,0,-1.1087,-1.1101,-1.1124,-1.1151,-1.117,-1.1194,-1.1218,-1.1227,-1.1262,-1.1279,-1.1304,-1.1322,-1.1356,-1.1381,-1.141,-1.1429,-1.1446,-1.145,-1.1451,-1.1444,-1.1433,-1.1439,-1.1451,-1.145,-1.145,-1.145,-1.145,-1.145,-1.1075,-1.1087,-1.1117,-1.1142,-1.1164,-1.1185,-1.12,-1.1224,-1.1246,-1.1276,-1.1293,-1.1317,-1.1346,-1.1387,-1.1405,-1.1424,-1.143,-1.1433,-1.1433,-1.1433,-1.1431,-1.143,-1.143,-1.143,-1.143,-1.143,-1.143,0,-1.1065,-1.1086,-1.1108,-1.1142,-1.1161,-1.1176,-1.1203,-1.1218,-1.124,-1.1265,-1.1287,-1.1316,-1.1341,-1.137,-1.1397,-1.1407,-1.1415,-1.1413,-1.1412,-1.1416,-1.1424,-1.142,-1.1406,-1.1406,-1.1406,-1.1406,-1.1406,-1.1406,-1.1062,-1.1084,-1.1101,-1.1134,-1.1154,-1.1179,-1.1194,-1.1214,-1.1234,-1.1266,-1.1287,-1.1306,-1.1333,-1.1361,-1.1385,-1.1393,-1.1401,-1.1396,-1.1406,-1.1414,-1.1416,-1.1418,-1.1414,-1.1398,-1.1398,-1.1397,-1.1397,-1.1397]},{"header":{"parameterUnit":"m.s-1","parameterCategory":1,"la1":30.2991,"la2":30.254,"lo1":-89.0895,"lo2":-89.0444,"dy":0.0017,"dx":0.0017,"nx":28,"ny":28,"refTime":"2024-07-27T09:00:00:Z","depth":0,"parameterNumber":3,"parameterNumberName":"V-component_of_WINDS"},"data":[0,0,0,0,0,0,0,0,0,0,0,0,0,0,0,0,0,0,0,0,0,0,0,0,0,0,0,0,0,0,0,0,0,0,0,0,0,0,0,0,0,0,0,0,0,0,0,0,0,0,0,0,0,0,0,0,0,0,1.9452,1.9451,0,1.932,1.9318,1.9317,1.9137,1.9134,1.9131,1.9128,1.8991,1.899,1.8989,0,0,0,0,0,0,0,0,0,0,0,0,0,1.9548,1.9548,1.9452,1.9451,1.9449,1.932,1.9318,1.9316,1.9138,1.9134,1.913,1.9127,1.8991,1.899,1.8989,0,0,0,0,0,0,0,0,0,0,0,0,0,1.9471,1.9547,1.9453,1.9344,1.9333,1.932,1.9318,1.9316,1.9138,1.9134,1.9129,1.9125,1.8991,1.899,1.8989,1.9071,0,0,1.8985,1.8984,0,0,0,0,0,0,0,0,1.9475,1.9467,1.9362,1.9352,1.9339,1.924,1.9301,1.9234,1.9139,1.9212,1.9128,1.9123,1.9077,1.9068,1.9053,1.9064,1.9058,1.8985,1.8984,1.8983,1.8983,0,0,0,0,0,0,0,1.9481,1.9472,1.94,1.936,1.9347,1.9302,1.9286,1.9288,1.9172,1.9206,1.9192,1.9179,1.907,1.9055,1.9049,1.9056,1.8985,1.8983,1.8983,1.8982,1.9126,1.9131,0,0,0,0,0,0,1.9503,1.9478,1.9404,1.9396,1.9398,1.9304,1.9286,1.9277,1.9171,1.9151,1.9183,1.9171,1.906,1.9051,1.9043,1.9131,1.8983,1.8982,1.8981,1.9122,1.9127,1.9132,0,0,0,0,0,0,1.9505,1.9498,1.9409,1.9433,1.9418,1.9307,1.9298,1.9276,1.9261,1.9154,1.9132,1.9189,1.9056,1.9045,1.9065,1.9124,1.8981,1.898,1.9116,1.9124,1.913,1.9309,0,0,0,0,0,0,1.9509,1.95,1.953,1.9435,1.9418,1.9434,1.9302,1.9277,1.926,1.9243,1.9154,1.9135,1.9051,1.9068,1.9064,1.9119,1.8979,1.9111,1.912,1.9128,1.9297,1.9321,1.9341,0,0,0,0,0,1.9513,1.9586,1.9533,1.9525,1.9454,1.9438,1.9428,1.9331,1.9265,1.9294,1.9226,1.9138,1.9119,1.9072,1.9065,1.9122,1.9106,1.9117,1.9127,1.9287,1.9316,1.9341,0,0,0,0,0,0,1.969,1.9571,1.9511,1.9555,1.9508,1.9408,1.9441,1.9365,1.9335,1.9321,1.9201,1.9182,1.9217,1.9171,1.9121,1.9195,1.9099,1.9109,1.9223,1.925,1.9272,1.9281,1.8978,0,0,0,0,0,1.9734,1.9732,1.9628,1.9677,1.9657,1.9554,1.9544,1.9473,1.9419,1.9398,1.933,1.9281,1.9263,1.9254,1.9232,1.929,1.9267,1.9326,1.9348,1.9367,1.9376,1.9402,1.9426,1.9166,1.9166,1.9166,0,0,1.9825,1.976,1.9766,1.9711,1.9666,1.9666,1.9538,1.9544,1.9542,1.9398,1.9413,1.9362,1.9299,1.9338,1.9352,1.9301,1.9443,1.938,1.9396,1.9394,1.9415,1.944,1.9462,1.9174,1.9172,1.9171,0,0,1.999,1.9942,1.9976,1.9935,1.9869,1.98,1.9809,1.972,1.9681,1.9694,1.9587,1.9583,1.9556,1.9515,1.949,1.9642,1.9559,1.9638,1.9753,1.978,1.98,1.9818,1.987,1.9891,1.9648,1.9649,1.9649,0,2.0111,2.0107,2.0004,2.0016,1.9995,1.9866,1.99,1.9864,1.9795,1.9783,1.9728,1.9691,1.9639,1.9666,1.9704,1.9689,1.9694,1.9647,1.9806,1.9822,1.9837,1.9886,1.9906,1.9658,1.9657,1.9656,1.9655,0,2.0258,2.0257,2.0293,2.023,2.0213,2.0237,2.0136,2.0131,2.0063,2.0001,2.0015,1.9949,1.9911,1.9913,1.9846,1.9931,1.9901,1.9828,1.9729,1.9874,1.9917,1.9935,1.9673,1.9669,1.9666,1.9664,0,0,2.0528,2.0409,2.0424,2.0394,2.0312,2.0309,2.0327,2.0291,2.0288,2.0245,2.0256,2.0237,2.0168,2.0141,2.0069,2.0093,2.0215,2.0016,2.0012,2.0054,2.0303,2.0357,2.038,2.0161,2.0164,2.0167,2.0307,0,2.0676,2.0699,2.0608,2.0654,2.0652,2.0531,2.0546,2.0497,2.044,2.0428,2.0364,2.0352,2.0264,2.0246,2.0265,2.0197,2.0263,2.0185,2.0168,2.0169,2.0186,2.0403,2.046,2.0596,2.0324,2.0327,2.0329,0,2.0851,2.0818,2.0865,2.0782,2.0777,2.0792,2.0751,2.0743,2.0686,2.0642,2.0613,2.0529,2.0539,2.0448,2.0459,2.0408,2.0396,2.0362,2.0365,2.0357,2.0256,2.04,2.0637,2.0657,2.0355,2.0353,2.0351,0,2.1042,2.1009,2.1032,2.1011,2.0914,2.0928,2.0888,2.0826,2.0811,2.0775,2.0764,2.073,2.0712,2.0687,2.0597,2.0538,2.0619,2.0519,2.0581,2.0584,2.0601,2.0601,2.0838,2.0598,2.0598,2.0597,2.0597,0,2.1215,2.1248,2.1117,2.1131,2.1164,2.1059,2.1095,2.1043,2.0989,2.0991,2.0885,2.0888,2.077,2.076,2.0689,2.0709,2.0702,2.0666,2.0646,2.0674,2.0678,2.0662,2.065,2.0603,2.0601,2.06,2.06,0,2.1431,2.1345,2.1363,2.1271,2.1249,2.1277,2.1197,2.1207,2.1143,2.1147,2.1141,2.1041,2.1024,2.0932,2.0894,2.0846,2.089,2.0853,2.091,2.0897,2.0963,2.0958,2.1197,2.1222,2.0969,2.0971,2.0973,0,2.1546,2.1569,2.148,2.1474,2.1439,2.1431,2.1415,2.1313,2.13,2.1237,2.1254,2.1228,2.1202,2.1181,2.1104,2.1074,2.1033,2.1119,2.1028,2.1055,2.1032,2.1031,2.1032,2.1138,2.1142,2.1144,2.1146,0,2.1759,2.1716,2.1697,2.1664,2.1648,2.1616,2.1578,2.1579,2.1466,2.1457,2.1439,2.1419,2.1381,2.1356,2.1314,2.1271,2.119,2.1176,2.1189,2.1216,2.1248,2.123,2.0961,2.1171,2.1168,2.1166,2.1165,2.1164,2.1926,2.1941,2.1881,2.1863,2.1824,2.1792,2.1796,2.1733,2.1717,2.1678,2.1619,2.1609,2.1551,2.1485,2.145,2.144,2.1393,2.1412,2.1416,2.1421,2.1435,2.1252,2.1432,2.1431,2.143,2.1429,2.1429,0,2.2132,2.2088,2.2073,2.2024,2.201,2.1937,2.1892,2.1885,2.1878,2.1831,2.1809,2.1788,2.1764,2.1687,2.1655,2.1662,2.1623,2.1656,2.1654,2.1645,2.1479,2.1471,2.1688,2.1688,2.1688,2.1688,2.1688,2.1688,2.2237,2.2257,2.2207,2.2207,2.2161,2.2152,2.2132,2.2101,2.2063,2.2046,2.2026,2.1976,2.1917,2.188,2.1855,2.1832,2.1825,2.187,2.1835,2.1682,2.1657,2.1633,2.1624,2.187,2.187,2.2001,2.2002,2.2003]}]]